Year,Month,Day,Hour,Minute,Value (Times are PST for temperature in C)
2015,09,27,00,00,9.40
2015,09,27,00,01,9.40
2015,09,27,00,02,9.40
2015,09,27,00,03,9.40
2015,09,27,00,04,9.30
2015,09,27,00,05,9.30
2015,09,27,00,06,9.30
2015,09,27,00,07,9.30
2015,09,27,00,08,9.20
2015,09,27,00,09,9.20
2015,09,27,00,10,9.20
2015,09,27,00,11,9.20
2015,09,27,00,12,9.10
2015,09,27,00,13,9.10
2015,09,27,00,14,9.10
2015,09,27,00,15,9.00
2015,09,27,00,16,9.00
2015,09,27,00,17,8.90
2015,09,27,00,18,8.90
2015,09,27,00,19,8.90
2015,09,27,00,20,8.90
2015,09,27,00,21,8.90
2015,09,27,00,22,8.80
2015,09,27,00,23,8.80
2015,09,27,00,24,8.80
2015,09,27,00,25,8.80
2015,09,27,00,26,8.80
2015,09,27,00,27,8.70
2015,09,27,00,28,8.70
2015,09,27,00,29,8.70
2015,09,27,00,30,8.70
2015,09,27,00,31,8.60
2015,09,27,00,32,8.60
2015,09,27,00,33,8.60
2015,09,27,00,34,8.60
2015,09,27,00,35,8.60
2015,09,27,00,36,8.60
2015,09,27,00,37,8.60
2015,09,27,00,38,8.60
2015,09,27,00,39,8.60
2015,09,27,00,40,8.50
2015,09,27,00,41,8.50
2015,09,27,00,42,8.50
2015,09,27,00,43,8.50
2015,09,27,00,44,8.40
2015,09,27,00,45,8.40
2015,09,27,00,46,8.40
2015,09,27,00,47,8.40
2015,09,27,00,48,8.40
2015,09,27,00,49,8.40
2015,09,27,00,50,8.30
2015,09,27,00,51,8.30
2015,09,27,00,52,8.30
2015,09,27,00,53,8.30
2015,09,27,00,54,8.30
2015,09,27,00,55,8.20
2015,09,27,00,56,8.20
2015,09,27,00,57,8.20
2015,09,27,00,58,8.20
2015,09,27,00,59,8.20
2015,09,27,01,00,8.10
2015,09,27,01,01,8.10
2015,09,27,01,02,8.10
2015,09,27,01,03,8.10
2015,09,27,01,04,8.00
2015,09,27,01,05,8.00
2015,09,27,01,06,8.00
2015,09,27,01,07,7.90
2015,09,27,01,08,7.90
2015,09,27,01,09,7.90
2015,09,27,01,10,7.90
2015,09,27,01,11,7.90
2015,09,27,01,12,7.80
2015,09,27,01,13,7.80
2015,09,27,01,14,7.80
2015,09,27,01,15,7.80
2015,09,27,01,16,7.80
2015,09,27,01,17,7.70
2015,09,27,01,18,7.70
2015,09,27,01,19,7.70
2015,09,27,01,20,7.70
2015,09,27,01,21,7.70
2015,09,27,01,22,7.70
2015,09,27,01,23,7.70
2015,09,27,01,24,7.70
2015,09,27,01,25,7.60
2015,09,27,01,26,7.60
2015,09,27,01,27,7.60
2015,09,27,01,28,7.60
2015,09,27,01,29,7.60
2015,09,27,01,30,7.60
2015,09,27,01,31,7.60
2015,09,27,01,32,7.60
2015,09,27,01,33,7.60
2015,09,27,01,34,7.60
2015,09,27,01,35,7.60
2015,09,27,01,36,7.60
2015,09,27,01,37,7.60
2015,09,27,01,38,7.60
2015,09,27,01,39,7.60
2015,09,27,01,40,7.50
2015,09,27,01,41,7.50
2015,09,27,01,42,7.50
2015,09,27,01,43,7.50
2015,09,27,01,44,7.40
2015,09,27,01,45,7.40
2015,09,27,01,46,7.40
2015,09,27,01,47,7.40
2015,09,27,01,48,7.40
2015,09,27,01,49,7.40
2015,09,27,01,50,7.30
2015,09,27,01,51,7.30
2015,09,27,01,52,7.30
2015,09,27,01,53,7.30
2015,09,27,01,54,7.30
2015,09,27,01,55,7.30
2015,09,27,01,56,7.30
2015,09,27,01,57,7.30
2015,09,27,01,58,7.30
2015,09,27,01,59,7.30
2015,09,27,02,00,7.30
2015,09,27,02,01,7.30
2015,09,27,02,02,7.20
2015,09,27,02,03,7.20
2015,09,27,02,04,7.20
2015,09,27,02,05,7.20
2015,09,27,02,06,7.20
2015,09,27,02,07,7.20
2015,09,27,02,08,7.20
2015,09,27,02,09,7.20
2015,09,27,02,10,7.20
2015,09,27,02,11,7.20
2015,09,27,02,12,7.20
2015,09,27,02,13,7.20
2015,09,27,02,14,7.20
2015,09,27,02,15,7.20
2015,09,27,02,16,7.20
2015,09,27,02,17,7.20
2015,09,27,02,18,7.20
2015,09,27,02,19,7.20
2015,09,27,02,20,7.20
2015,09,27,02,21,7.20
2015,09,27,02,22,7.20
2015,09,27,02,23,7.20
2015,09,27,02,24,7.20
2015,09,27,02,25,7.20
2015,09,27,02,26,7.20
2015,09,27,02,27,7.20
2015,09,27,02,28,7.20
2015,09,27,02,29,7.20
2015,09,27,02,30,7.20
2015,09,27,02,31,7.20
2015,09,27,02,32,7.20
2015,09,27,02,33,7.20
2015,09,27,02,34,7.10
2015,09,27,02,35,7.10
2015,09,27,02,36,7.10
2015,09,27,02,37,7.10
2015,09,27,02,38,7.10
2015,09,27,02,39,7.10
2015,09,27,02,40,7.10
2015,09,27,02,41,7.10
2015,09,27,02,42,7.10
2015,09,27,02,43,7.10
2015,09,27,02,44,7.10
2015,09,27,02,45,7.10
2015,09,27,02,46,7.10
2015,09,27,02,47,7.10
2015,09,27,02,48,7.10
2015,09,27,02,49,7.10
2015,09,27,02,50,7.10
2015,09,27,02,51,7.10
2015,09,27,02,52,7.10
2015,09,27,02,53,7.10
2015,09,27,02,54,7.10
2015,09,27,02,55,7.10
2015,09,27,02,56,7.10
2015,09,27,02,57,7.10
2015,09,27,02,58,7.10
2015,09,27,02,59,7.10
2015,09,27,03,00,7.10
2015,09,27,03,01,7.10
2015,09,27,03,02,7.10
2015,09,27,03,03,7.10
2015,09,27,03,04,7.10
2015,09,27,03,05,7.10
2015,09,27,03,06,7.10
2015,09,27,03,07,7.10
2015,09,27,03,08,7.10
2015,09,27,03,09,7.10
2015,09,27,03,10,7.10
2015,09,27,03,11,7.00
2015,09,27,03,12,7.00
2015,09,27,03,13,7.00
2015,09,27,03,14,7.00
2015,09,27,03,15,7.00
2015,09,27,03,16,7.00
2015,09,27,03,17,7.00
2015,09,27,03,18,7.00
2015,09,27,03,19,7.00
2015,09,27,03,20,6.90
2015,09,27,03,21,6.90
2015,09,27,03,22,6.90
2015,09,27,03,23,6.90
2015,09,27,03,24,6.90
2015,09,27,03,25,6.90
2015,09,27,03,26,6.90
2015,09,27,03,27,6.90
2015,09,27,03,28,6.90
2015,09,27,03,29,6.90
2015,09,27,03,30,6.90
2015,09,27,03,31,6.90
2015,09,27,03,32,6.90
2015,09,27,03,33,6.90
2015,09,27,03,34,6.90
2015,09,27,03,35,6.90
2015,09,27,03,36,6.90
2015,09,27,03,37,6.80
2015,09,27,03,38,6.80
2015,09,27,03,39,6.80
2015,09,27,03,40,6.80
2015,09,27,03,41,6.80
2015,09,27,03,42,6.80
2015,09,27,03,43,6.80
2015,09,27,03,44,6.80
2015,09,27,03,45,6.80
2015,09,27,03,46,6.80
2015,09,27,03,47,6.80
2015,09,27,03,48,6.80
2015,09,27,03,49,6.80
2015,09,27,03,50,6.80
2015,09,27,03,51,6.80
2015,09,27,03,52,6.80
2015,09,27,03,53,6.80
2015,09,27,03,54,6.80
2015,09,27,03,55,6.80
2015,09,27,03,56,6.80
2015,09,27,03,57,6.80
2015,09,27,03,58,6.80
2015,09,27,03,59,6.80
2015,09,27,04,00,6.80
2015,09,27,04,01,6.80
2015,09,27,04,02,6.80
2015,09,27,04,03,6.80
2015,09,27,04,04,6.80
2015,09,27,04,05,6.80
2015,09,27,04,06,6.80
2015,09,27,04,07,6.80
2015,09,27,04,08,6.80
2015,09,27,04,09,6.70
2015,09,27,04,10,6.70
2015,09,27,04,11,6.70
2015,09,27,04,12,6.70
2015,09,27,04,13,6.70
2015,09,27,04,14,6.70
2015,09,27,04,15,6.70
2015,09,27,04,16,6.70
2015,09,27,04,17,6.70
2015,09,27,04,18,6.70
2015,09,27,04,19,6.70
2015,09,27,04,20,6.70
2015,09,27,04,21,6.70
2015,09,27,04,22,6.70
2015,09,27,04,23,6.70
2015,09,27,04,24,6.60
2015,09,27,04,25,6.70
2015,09,27,04,26,6.70
2015,09,27,04,27,6.70
2015,09,27,04,28,6.70
2015,09,27,04,29,6.70
2015,09,27,04,30,6.70
2015,09,27,04,31,6.70
2015,09,27,04,32,6.70
2015,09,27,04,33,6.70
2015,09,27,04,34,6.70
2015,09,27,04,35,6.70
2015,09,27,04,36,6.70
2015,09,27,04,37,6.70
2015,09,27,04,38,6.60
2015,09,27,04,39,6.60
2015,09,27,04,40,6.60
2015,09,27,04,41,6.60
2015,09,27,04,42,6.60
2015,09,27,04,43,6.60
2015,09,27,04,44,6.60
2015,09,27,04,45,6.60
2015,09,27,04,46,6.60
2015,09,27,04,47,6.60
2015,09,27,04,48,6.60
2015,09,27,04,49,6.60
2015,09,27,04,50,6.60
2015,09,27,04,51,6.60
2015,09,27,04,52,6.60
2015,09,27,04,53,6.60
2015,09,27,04,54,6.60
2015,09,27,04,55,6.60
2015,09,27,04,56,6.60
2015,09,27,04,57,6.50
2015,09,27,04,58,6.50
2015,09,27,04,59,6.50
2015,09,27,05,00,6.50
2015,09,27,05,01,6.50
2015,09,27,05,02,6.50
2015,09,27,05,03,6.50
2015,09,27,05,04,6.50
2015,09,27,05,05,6.50
2015,09,27,05,06,6.50
2015,09,27,05,07,6.50
2015,09,27,05,08,6.50
2015,09,27,05,09,6.50
2015,09,27,05,10,6.50
2015,09,27,05,11,6.50
2015,09,27,05,12,6.50
2015,09,27,05,13,6.50
2015,09,27,05,14,6.50
2015,09,27,05,15,6.50
2015,09,27,05,16,6.50
2015,09,27,05,17,6.50
2015,09,27,05,18,6.50
2015,09,27,05,19,6.50
2015,09,27,05,20,6.50
2015,09,27,05,21,6.50
2015,09,27,05,22,6.50
2015,09,27,05,23,6.50
2015,09,27,05,24,6.40
2015,09,27,05,25,6.40
2015,09,27,05,26,6.40
2015,09,27,05,27,6.40
2015,09,27,05,29,6.40
2015,09,27,05,30,6.40
2015,09,27,05,31,6.40
2015,09,27,05,32,6.40
2015,09,27,05,33,6.40
2015,09,27,05,34,6.40
2015,09,27,05,35,6.40
2015,09,27,05,36,6.40
2015,09,27,05,37,6.40
2015,09,27,05,38,6.40
2015,09,27,05,39,6.40
2015,09,27,05,40,6.40
2015,09,27,05,41,6.40
2015,09,27,05,42,6.40
2015,09,27,05,43,6.40
2015,09,27,05,44,6.30
2015,09,27,05,45,6.30
2015,09,27,05,46,6.30
2015,09,27,05,47,6.30
2015,09,27,05,48,6.30
2015,09,27,05,49,6.40
2015,09,27,05,50,6.30
2015,09,27,05,51,6.30
2015,09,27,05,52,6.30
2015,09,27,05,53,6.30
2015,09,27,05,54,6.40
2015,09,27,05,55,6.40
2015,09,27,05,56,6.30
2015,09,27,05,58,6.40
2015,09,27,05,59,6.40
2015,09,27,06,00,6.40
2015,09,27,06,01,6.40
2015,09,27,06,02,6.40
2015,09,27,06,03,6.40
2015,09,27,06,04,6.40
2015,09,27,06,05,6.40
2015,09,27,06,06,6.50
2015,09,27,06,07,6.50
2015,09,27,06,08,6.60
2015,09,27,06,09,6.60
2015,09,27,06,10,6.60
2015,09,27,06,11,6.60
2015,09,27,06,12,6.60
2015,09,27,06,13,6.60
2015,09,27,06,14,6.70
2015,09,27,06,15,6.70
2015,09,27,06,16,6.70
2015,09,27,06,17,6.70
2015,09,27,06,18,6.80
2015,09,27,06,19,6.80
2015,09,27,06,20,6.80
2015,09,27,06,21,6.80
2015,09,27,06,22,6.80
2015,09,27,06,23,6.80
2015,09,27,06,24,6.80
2015,09,27,06,25,6.80
2015,09,27,06,26,6.80
2015,09,27,06,27,6.90
2015,09,27,06,28,6.90
2015,09,27,06,29,6.90
2015,09,27,06,30,6.90
2015,09,27,06,31,6.90
2015,09,27,06,32,6.90
2015,09,27,06,33,6.90
2015,09,27,06,34,6.90
2015,09,27,06,35,6.90
2015,09,27,06,36,6.90
2015,09,27,06,37,6.90
2015,09,27,06,38,6.90
2015,09,27,06,39,6.90
2015,09,27,06,40,6.90
2015,09,27,06,41,6.90
2015,09,27,06,42,6.90
2015,09,27,06,43,6.90
2015,09,27,06,44,6.90
2015,09,27,06,45,6.90
2015,09,27,06,46,7.00
2015,09,27,06,47,7.00
2015,09,27,06,48,7.00
2015,09,27,06,49,7.00
2015,09,27,06,50,7.00
2015,09,27,06,51,7.00
2015,09,27,06,52,7.10
2015,09,27,06,53,7.10
2015,09,27,06,54,7.10
2015,09,27,06,55,7.10
2015,09,27,06,56,7.10
2015,09,27,06,57,7.10
2015,09,27,06,58,7.10
2015,09,27,06,59,7.10
2015,09,27,07,00,7.10
2015,09,27,07,01,7.20
2015,09,27,07,02,7.20
2015,09,27,07,03,7.20
2015,09,27,07,04,7.20
2015,09,27,07,05,7.20
2015,09,27,07,06,7.20
2015,09,27,07,07,7.20
2015,09,27,07,08,7.20
2015,09,27,07,09,7.30
2015,09,27,07,10,7.30
2015,09,27,07,11,7.30
2015,09,27,07,12,7.30
2015,09,27,07,13,7.30
2015,09,27,07,14,7.30
2015,09,27,07,15,7.30
2015,09,27,07,16,7.30
2015,09,27,07,17,7.40
2015,09,27,07,18,7.40
2015,09,27,07,19,7.40
2015,09,27,07,20,7.40
2015,09,27,07,21,7.40
2015,09,27,07,22,7.40
2015,09,27,07,23,7.40
2015,09,27,07,24,7.40
2015,09,27,07,25,7.40
2015,09,27,07,26,7.40
2015,09,27,07,27,7.40
2015,09,27,07,28,7.40
2015,09,27,07,29,7.40
2015,09,27,07,30,7.40
2015,09,27,07,31,7.40
2015,09,27,07,32,7.40
2015,09,27,07,33,7.40
2015,09,27,07,34,7.40
2015,09,27,07,35,7.40
2015,09,27,07,36,7.50
2015,09,27,07,37,7.50
2015,09,27,07,38,7.50
2015,09,27,07,39,7.50
2015,09,27,07,40,7.50
2015,09,27,07,41,7.50
2015,09,27,07,42,7.50
2015,09,27,07,43,7.60
2015,09,27,07,44,7.50
2015,09,27,07,45,7.50
2015,09,27,07,46,7.50
2015,09,27,07,47,7.60
2015,09,27,07,48,7.60
2015,09,27,07,49,7.60
2015,09,27,07,50,7.60
2015,09,27,07,51,7.60
2015,09,27,07,52,7.60
2015,09,27,07,53,7.60
2015,09,27,07,54,7.60
2015,09,27,07,55,7.60
2015,09,27,07,56,7.60
2015,09,27,07,57,7.60
2015,09,27,07,58,7.60
2015,09,27,07,59,7.60
2015,09,27,08,00,7.60
2015,09,27,08,01,7.60
2015,09,27,08,02,7.60
2015,09,27,08,03,7.60
2015,09,27,08,04,7.60
2015,09,27,08,05,7.60
2015,09,27,08,06,7.70
2015,09,27,08,07,7.70
2015,09,27,08,08,7.70
2015,09,27,08,09,7.70
2015,09,27,08,10,7.70
2015,09,27,08,11,7.70
2015,09,27,08,12,7.70
2015,09,27,08,13,7.60
2015,09,27,08,14,7.70
2015,09,27,08,15,7.70
2015,09,27,08,16,7.70
2015,09,27,08,17,7.70
2015,09,27,08,18,7.70
2015,09,27,08,19,7.70
2015,09,27,08,20,7.70
2015,09,27,08,21,7.70
2015,09,27,08,22,7.70
2015,09,27,08,23,7.70
2015,09,27,08,25,7.70
2015,09,27,08,26,7.70
2015,09,27,08,27,7.80
2015,09,27,08,28,7.80
2015,09,27,08,29,7.80
2015,09,27,08,30,7.80
2015,09,27,08,31,7.80
2015,09,27,08,32,7.80
2015,09,27,08,33,7.80
2015,09,27,08,34,7.80
2015,09,27,08,35,7.80
2015,09,27,08,36,7.80
2015,09,27,08,37,7.80
2015,09,27,08,38,7.80
2015,09,27,08,39,7.80
2015,09,27,08,40,7.80
2015,09,27,08,41,7.80
2015,09,27,08,42,7.80
2015,09,27,08,43,7.80
2015,09,27,08,44,7.80
2015,09,27,08,45,7.80
2015,09,27,08,46,7.80
2015,09,27,08,47,7.80
2015,09,27,08,48,7.80
2015,09,27,08,49,7.80
2015,09,27,08,50,7.80
2015,09,27,08,51,7.80
2015,09,27,08,52,7.80
2015,09,27,08,53,7.80
2015,09,27,08,54,7.80
2015,09,27,08,55,7.80
2015,09,27,08,56,7.80
2015,09,27,08,57,7.80
2015,09,27,08,58,7.80
2015,09,27,08,59,7.80
2015,09,27,09,00,7.80
2015,09,27,09,01,7.80
2015,09,27,09,02,7.80
2015,09,27,09,03,7.80
2015,09,27,09,04,7.80
2015,09,27,09,05,7.80
2015,09,27,09,06,7.80
2015,09,27,09,07,7.80
2015,09,27,09,08,7.80
2015,09,27,09,09,7.80
2015,09,27,09,10,7.80
2015,09,27,09,11,7.80
2015,09,27,09,12,7.80
2015,09,27,09,13,7.80
2015,09,27,09,14,7.80
2015,09,27,09,15,7.80
2015,09,27,09,16,7.80
2015,09,27,09,17,7.90
2015,09,27,09,18,7.80
2015,09,27,09,19,7.80
2015,09,27,09,20,7.90
2015,09,27,09,21,7.90
2015,09,27,09,22,7.90
2015,09,27,09,23,7.90
2015,09,27,09,24,7.90
2015,09,27,09,25,7.90
2015,09,27,09,26,7.90
2015,09,27,09,27,7.90
2015,09,27,09,28,7.90
2015,09,27,09,29,7.90
2015,09,27,09,30,7.90
2015,09,27,09,31,7.90
2015,09,27,09,32,7.90
2015,09,27,09,33,7.90
2015,09,27,09,34,7.90
2015,09,27,09,35,7.90
2015,09,27,09,36,7.90
2015,09,27,09,37,8.00
2015,09,27,09,38,8.00
2015,09,27,09,39,8.10
2015,09,27,09,40,8.10
2015,09,27,09,41,8.10
2015,09,27,09,42,8.10
2015,09,27,09,43,8.10
2015,09,27,09,44,8.10
2015,09,27,09,45,8.10
2015,09,27,09,46,8.10
2015,09,27,09,47,8.10
2015,09,27,09,48,8.10
2015,09,27,09,49,8.10
2015,09,27,09,50,8.10
2015,09,27,09,51,8.20
2015,09,27,09,52,8.20
2015,09,27,09,53,8.30
2015,09,27,09,54,8.30
2015,09,27,09,55,8.30
2015,09,27,09,56,8.30
2015,09,27,09,57,8.40
2015,09,27,09,58,8.40
2015,09,27,09,59,8.40
2015,09,27,10,00,8.40
2015,09,27,10,01,8.50
2015,09,27,10,02,8.60
2015,09,27,10,03,8.60
2015,09,27,10,04,8.60
2015,09,27,10,05,8.60
2015,09,27,10,06,8.70
2015,09,27,10,07,8.70
2015,09,27,10,08,8.80
2015,09,27,10,09,8.80
2015,09,27,10,10,8.80
2015,09,27,10,11,8.90
2015,09,27,10,12,8.90
2015,09,27,10,13,8.90
2015,09,27,10,14,8.90
2015,09,27,10,15,8.90
2015,09,27,10,16,8.90
2015,09,27,10,17,8.90
2015,09,27,10,18,8.90
2015,09,27,10,19,8.90
2015,09,27,10,20,8.90
2015,09,27,10,21,8.90
2015,09,27,10,22,9.00
2015,09,27,10,23,9.00
2015,09,27,10,24,9.10
2015,09,27,10,25,9.10
2015,09,27,10,26,9.10
2015,09,27,10,28,9.20
2015,09,27,10,29,9.20
2015,09,27,10,30,9.20
2015,09,27,10,31,9.30
2015,09,27,10,32,9.30
2015,09,27,10,33,9.30
2015,09,27,10,34,9.30
2015,09,27,10,35,9.40
2015,09,27,10,36,9.40
2015,09,27,10,37,9.40
2015,09,27,10,38,9.40
2015,09,27,10,39,9.40
2015,09,27,10,40,9.40
2015,09,27,10,41,9.50
2015,09,27,10,42,9.60
2015,09,27,10,43,9.50
2015,09,27,10,44,9.50
2015,09,27,10,45,9.60
2015,09,27,10,46,9.60
2015,09,27,10,47,9.70
2015,09,27,10,48,9.70
2015,09,27,10,49,9.80
2015,09,27,10,50,9.80
2015,09,27,10,51,9.90
2015,09,27,10,52,9.90
2015,09,27,10,53,10.00
2015,09,27,10,54,10.10
2015,09,27,10,55,10.10
2015,09,27,10,56,10.10
2015,09,27,10,57,10.10
2015,09,27,10,58,10.10
2015,09,27,10,59,10.10
2015,09,27,11,00,10.20
2015,09,27,11,01,10.20
2015,09,27,11,02,10.20
2015,09,27,11,03,10.30
2015,09,27,11,04,10.30
2015,09,27,11,05,10.40
2015,09,27,11,06,10.40
2015,09,27,11,07,10.50
2015,09,27,11,08,10.60
2015,09,27,11,09,10.70
2015,09,27,11,10,10.80
2015,09,27,11,11,10.90
2015,09,27,11,12,11.00
2015,09,27,11,13,11.10
2015,09,27,11,14,11.30
2015,09,27,11,15,11.30
2015,09,27,11,16,11.40
2015,09,27,11,17,11.60
2015,09,27,11,18,11.60
2015,09,27,11,19,11.70
2015,09,27,11,20,11.80
2015,09,27,11,21,11.90
2015,09,27,11,22,11.90
2015,09,27,11,23,11.90
2015,09,27,11,24,11.90
2015,09,27,11,25,12.00
2015,09,27,11,26,12.10
2015,09,27,11,27,12.10
2015,09,27,11,28,12.20
2015,09,27,11,29,12.20
2015,09,27,11,30,12.30
2015,09,27,11,31,12.30
2015,09,27,11,32,12.40
2015,09,27,11,33,12.40
2015,09,27,11,34,12.50
2015,09,27,11,35,12.60
2015,09,27,11,36,12.60
2015,09,27,11,37,12.70
2015,09,27,11,38,12.70
2015,09,27,11,39,12.70
2015,09,27,11,40,12.80
2015,09,27,11,41,12.80
2015,09,27,11,42,12.80
2015,09,27,11,43,12.90
2015,09,27,11,44,13.00
2015,09,27,11,45,13.10
2015,09,27,11,46,13.10
2015,09,27,11,47,13.20
2015,09,27,11,48,13.20
2015,09,27,11,49,13.20
2015,09,27,11,50,13.30
2015,09,27,11,51,13.30
2015,09,27,11,52,13.30
2015,09,27,11,53,13.30
2015,09,27,11,54,13.40
2015,09,27,11,55,13.40
2015,09,27,11,56,13.40
2015,09,27,11,57,13.50
2015,09,27,11,58,13.60
2015,09,27,11,59,13.60
2015,09,27,12,00,13.70
2015,09,27,12,01,13.80
2015,09,27,12,02,13.80
2015,09,27,12,03,13.80
2015,09,27,12,04,13.90
2015,09,27,12,05,14.00
2015,09,27,12,06,14.10
2015,09,27,12,07,14.20
2015,09,27,12,08,14.20
2015,09,27,12,09,14.30
2015,09,27,12,10,14.40
2015,09,27,12,11,14.50
2015,09,27,12,12,14.60
2015,09,27,12,13,14.60
2015,09,27,12,14,14.60
2015,09,27,12,15,14.70
2015,09,27,12,16,14.80
2015,09,27,12,17,14.80
2015,09,27,12,18,14.80
2015,09,27,12,19,14.80
2015,09,27,12,20,14.80
2015,09,27,12,21,14.80
2015,09,27,12,22,14.70
2015,09,27,12,23,14.70
2015,09,27,12,24,14.70
2015,09,27,12,25,14.80
2015,09,27,12,26,14.80
2015,09,27,12,27,14.80
2015,09,27,12,28,14.90
2015,09,27,12,29,15.00
2015,09,27,12,30,15.10
2015,09,27,12,31,15.20
2015,09,27,12,32,15.30
2015,09,27,12,33,15.30
2015,09,27,12,34,15.40
2015,09,27,12,35,15.40
2015,09,27,12,36,15.40
2015,09,27,12,37,15.60
2015,09,27,12,38,15.60
2015,09,27,12,39,15.70
2015,09,27,12,40,15.80
2015,09,27,12,41,15.90
2015,09,27,12,42,16.00
2015,09,27,12,43,16.10
2015,09,27,12,44,16.20
2015,09,27,12,45,16.20
2015,09,27,12,46,16.20
2015,09,27,12,47,16.30
2015,09,27,12,48,16.30
2015,09,27,12,49,16.30
2015,09,27,12,50,16.40
2015,09,27,12,51,16.40
2015,09,27,12,52,16.40
2015,09,27,12,53,16.40
2015,09,27,12,54,16.40
2015,09,27,12,55,16.30
2015,09,27,12,56,16.30
2015,09,27,12,57,16.30
2015,09,27,12,58,16.20
2015,09,27,12,59,16.20
2015,09,27,13,00,16.20
2015,09,27,13,01,16.20
2015,09,27,13,02,16.20
2015,09,27,13,03,16.20
2015,09,27,13,04,16.30
2015,09,27,13,05,16.40
2015,09,27,13,06,16.60
2015,09,27,13,07,16.70
2015,09,27,13,08,16.70
2015,09,27,13,09,16.70
2015,09,27,13,10,16.70
2015,09,27,13,11,16.60
2015,09,27,13,12,16.70
2015,09,27,13,13,16.70
2015,09,27,13,14,16.80
2015,09,27,13,15,16.90
2015,09,27,13,16,17.00
2015,09,27,13,17,17.10
2015,09,27,13,18,17.20
2015,09,27,13,19,17.30
2015,09,27,13,20,17.30
2015,09,27,13,21,17.30
2015,09,27,13,22,17.40
2015,09,27,13,23,17.50
2015,09,27,13,24,17.60
2015,09,27,13,25,17.60
2015,09,27,13,26,17.70
2015,09,27,13,27,17.70
2015,09,27,13,28,17.60
2015,09,27,13,29,17.60
2015,09,27,13,30,17.60
2015,09,27,13,31,17.70
2015,09,27,13,32,17.70
2015,09,27,13,33,17.80
2015,09,27,13,34,17.80
2015,09,27,13,35,17.80
2015,09,27,13,36,17.80
2015,09,27,13,37,17.90
2015,09,27,13,38,17.90
2015,09,27,13,40,17.90
2015,09,27,13,41,17.90
2015,09,27,13,42,18.00
2015,09,27,13,43,18.00
2015,09,27,13,44,18.10
2015,09,27,13,45,18.20
2015,09,27,13,46,18.20
2015,09,27,13,47,18.30
2015,09,27,13,48,18.30
2015,09,27,13,49,18.30
2015,09,27,13,50,18.30
2015,09,27,13,51,18.30
2015,09,27,13,52,18.20
2015,09,27,13,53,18.20
2015,09,27,13,54,18.30
2015,09,27,13,55,18.30
2015,09,27,13,56,18.30
2015,09,27,13,57,18.40
2015,09,27,13,58,18.40
2015,09,27,13,59,18.40
2015,09,27,14,00,18.60
2015,09,27,14,01,18.60
2015,09,27,14,02,18.70
2015,09,27,14,03,18.70
2015,09,27,14,04,18.70
2015,09,27,14,05,18.70
2015,09,27,14,06,18.70
2015,09,27,14,07,18.70
2015,09,27,14,08,18.70
2015,09,27,14,09,18.70
2015,09,27,14,10,18.70
2015,09,27,14,11,18.70
2015,09,27,14,12,18.60
2015,09,27,14,13,18.60
2015,09,27,14,14,18.60
2015,09,27,14,15,18.60
2015,09,27,14,16,18.60
2015,09,27,14,17,18.60
2015,09,27,14,18,18.60
2015,09,27,14,19,18.60
2015,09,27,14,20,18.60
2015,09,27,14,21,18.60
2015,09,27,14,22,18.60
2015,09,27,14,23,18.70
2015,09,27,14,24,18.80
2015,09,27,14,25,18.90
2015,09,27,14,26,18.90
2015,09,27,14,27,18.90
2015,09,27,14,28,19.00
2015,09,27,14,29,19.10
2015,09,27,14,30,19.20
2015,09,27,14,31,19.30
2015,09,27,14,32,19.40
2015,09,27,14,33,19.40
2015,09,27,14,34,19.50
2015,09,27,14,35,19.50
2015,09,27,14,36,19.50
2015,09,27,14,37,19.60
2015,09,27,14,38,19.60
2015,09,27,14,39,19.60
2015,09,27,14,40,19.60
2015,09,27,14,41,19.60
2015,09,27,14,42,19.60
2015,09,27,14,43,19.60
2015,09,27,14,44,19.70
2015,09,27,14,45,19.70
2015,09,27,14,46,19.70
2015,09,27,14,47,19.70
2015,09,27,14,48,19.70
2015,09,27,14,49,19.70
2015,09,27,14,50,19.70
2015,09,27,14,51,19.60
2015,09,27,14,52,19.60
2015,09,27,14,53,19.70
2015,09,27,14,54,19.70
2015,09,27,14,55,19.70
2015,09,27,14,56,19.70
2015,09,27,14,57,19.70
2015,09,27,14,58,19.60
2015,09,27,14,59,19.60
2015,09,27,15,00,19.60
2015,09,27,15,01,19.70
2015,09,27,15,02,19.70
2015,09,27,15,03,19.80
2015,09,27,15,04,19.80
2015,09,27,15,05,19.90
2015,09,27,15,06,19.90
2015,09,27,15,07,19.90
2015,09,27,15,08,19.90
2015,09,27,15,09,19.80
2015,09,27,15,10,19.90
2015,09,27,15,11,19.90
2015,09,27,15,12,19.80
2015,09,27,15,13,19.70
2015,09,27,15,14,19.50
2015,09,27,15,15,19.40
2015,09,27,15,16,19.30
2015,09,27,15,17,19.30
2015,09,27,15,18,19.40
2015,09,27,15,19,19.40
2015,09,27,15,20,19.50
2015,09,27,15,21,19.60
2015,09,27,15,22,19.70
2015,09,27,15,23,19.80
2015,09,27,15,24,19.80
2015,09,27,15,25,19.90
2015,09,27,15,26,19.90
2015,09,27,15,27,20.00
2015,09,27,15,28,19.90
2015,09,27,15,29,20.00
2015,09,27,15,30,19.90
2015,09,27,15,31,19.90
2015,09,27,15,32,19.90
2015,09,27,15,33,19.90
2015,09,27,15,34,19.90
2015,09,27,15,35,19.90
2015,09,27,15,36,20.00
2015,09,27,15,37,19.90
2015,09,27,15,38,19.80
2015,09,27,15,40,19.70
2015,09,27,15,41,19.70
2015,09,27,15,42,19.60
2015,09,27,15,43,19.60
2015,09,27,15,44,19.60
2015,09,27,15,45,19.60
2015,09,27,15,46,19.60
2015,09,27,15,47,19.60
2015,09,27,15,48,19.70
2015,09,27,15,49,19.70
2015,09,27,15,50,19.80
2015,09,27,15,51,19.80
2015,09,27,15,52,19.90
2015,09,27,15,53,19.90
2015,09,27,15,54,19.90
2015,09,27,15,55,20.00
2015,09,27,15,56,20.10
2015,09,27,15,57,20.10
2015,09,27,15,58,20.10
2015,09,27,15,59,20.10
2015,09,27,16,00,20.20
2015,09,27,16,01,20.20
2015,09,27,16,02,20.30
2015,09,27,16,04,20.30
2015,09,27,16,05,20.30
2015,09,27,16,06,20.20
2015,09,27,16,07,20.10
2015,09,27,16,08,19.90
2015,09,27,16,09,19.80
2015,09,27,16,10,19.70
2015,09,27,16,11,19.80
2015,09,27,16,12,19.80
2015,09,27,16,13,19.90
2015,09,27,16,14,20.00
2015,09,27,16,15,20.10
2015,09,27,16,16,20.10
2015,09,27,16,17,20.10
2015,09,27,16,18,19.90
2015,09,27,16,19,19.80
2015,09,27,16,21,19.50
2015,09,27,16,22,19.40
2015,09,27,16,23,19.40
2015,09,27,16,24,19.50
2015,09,27,16,25,19.60
2015,09,27,16,27,19.60
2015,09,27,16,28,19.70
2015,09,27,16,29,19.70
2015,09,27,16,30,19.80
2015,09,27,16,31,19.90
2015,09,27,16,32,20.00
2015,09,27,16,33,20.10
2015,09,27,16,34,20.10
2015,09,27,16,35,20.20
2015,09,27,16,37,20.30
2015,09,27,16,38,20.30
2015,09,27,16,39,20.20
2015,09,27,16,40,20.20
2015,09,27,16,41,20.20
2015,09,27,16,42,20.20
2015,09,27,16,43,20.20
2015,09,27,16,44,20.20
2015,09,27,16,45,20.20
2015,09,27,16,46,20.10
2015,09,27,16,47,20.10
2015,09,27,16,48,20.00
2015,09,27,16,49,20.00
2015,09,27,16,50,19.90
2015,09,27,16,51,19.90
2015,09,27,16,52,19.90
2015,09,27,16,53,19.90
2015,09,27,16,54,19.90
2015,09,27,16,55,19.90
2015,09,27,16,56,19.90
2015,09,27,16,57,19.90
2015,09,27,16,58,20.00
2015,09,27,16,59,20.00
2015,09,27,17,00,19.90
2015,09,27,17,01,19.90
2015,09,27,17,02,19.80
2015,09,27,17,03,19.80
2015,09,27,17,04,19.70
2015,09,27,17,05,19.70
2015,09,27,17,06,19.60
2015,09,27,17,07,19.60
2015,09,27,17,08,19.50
2015,09,27,17,09,19.50
2015,09,27,17,10,19.50
2015,09,27,17,11,19.40
2015,09,27,17,12,19.40
2015,09,27,17,13,19.40
2015,09,27,17,14,19.40
2015,09,27,17,15,19.40
2015,09,27,17,16,19.40
2015,09,27,17,17,19.50
2015,09,27,17,18,19.50
2015,09,27,17,19,19.40
2015,09,27,17,20,19.40
2015,09,27,17,21,19.40
2015,09,27,17,22,19.40
2015,09,27,17,23,19.40
2015,09,27,17,24,19.40
2015,09,27,17,25,19.40
2015,09,27,17,26,19.50
2015,09,27,17,27,19.50
2015,09,27,17,28,19.60
2015,09,27,17,29,19.60
2015,09,27,17,30,19.60
2015,09,27,17,31,19.50
2015,09,27,17,32,19.40
2015,09,27,17,33,19.40
2015,09,27,17,34,19.30
2015,09,27,17,35,19.30
2015,09,27,17,36,19.20
2015,09,27,17,37,19.20
2015,09,27,17,38,19.20
2015,09,27,17,39,19.20
2015,09,27,17,40,19.10
2015,09,27,17,41,19.10
2015,09,27,17,42,19.10
2015,09,27,17,43,19.00
2015,09,27,17,44,18.90
2015,09,27,17,45,18.90
2015,09,27,17,46,18.80
2015,09,27,17,47,18.80
2015,09,27,17,48,18.80
2015,09,27,17,49,18.80
2015,09,27,17,50,18.70
2015,09,27,17,51,18.70
2015,09,27,17,52,18.70
2015,09,27,17,53,18.60
2015,09,27,17,54,18.60
2015,09,27,17,55,18.50
2015,09,27,17,56,18.40
2015,09,27,17,57,18.40